Flag for Bosnia-Herzegovina Weather past 2 weeks in Mostar, Bosnia-Herzegovina

Now
75 °F

Passing clouds.


Feels Like: 77 °F
Forecast: 72 / 98 °F
Wind: 3 mph from West

Location: Mostar

Current Time: Aug 4, 2015 at 5:30:40 AM

Latest Report: Aug 4, 2015 at 5:00 AM


Visibility: N/A

Pressure: 29.89 "Hg

Humidity: 65%

Dew point: 63 °F

Location of MostarLocation

Historic Weather in Mostar — Graph

°F

Mostar temperature yesterday

Maximum temperature yesterday: 95 °F (at 4:00 PM)
Minimum temperature yesterday: 70 °F (at 7:30 AM)
Average temperature yesterday: 79 °F

Past Weeks' High & Low Weather Summary

 TemperatureHumidityPressure
High106 °F (Jul 20, 3:00 PM)88% (Jul 27, 5:00 AM)29.98 "Hg (Jul 27, 5:00 AM)
Low66 °F (Jul 24, 5:00 AM)13% (Jul 21, 3:30 PM)29.65 "Hg (Jul 27, 2:00 PM)
Average85 °F49%29.79 "Hg
* Reported Jul 20 4:00 AM — Aug 4 4:30 AM, Mostar, Weather by CustomWeather, © 2015

Note: Actual official high and low records may vary slightly from our data, if they occured in-between our weather recording intervals... More about our weather records

Advertising

Mostar weather history for previous 24 hours

 ConditionsComfort  
Time TempWeatherWind HumidityBarometerVisibility
4:30 AM
Tue, Aug 4
73 °FPassing clouds.3 mph74%29.89 "HgN/A
2:00 AM77 °FPassing clouds.1 mph69%29.92 "HgN/A
1:00 AM79 °FPassing clouds.2 mph61%29.92 "HgN/A
12:00 AM82 °FPassing clouds.2 mph48%29.92 "HgN/A
11:00 PM
Mon, Aug 3
82 °FPassing clouds.6 mph51%29.89 "HgN/A
10:00 PM84 °FPassing clouds.2 mph45%29.89 "HgN/A
9:00 PM88 °FScattered clouds.7 mph40%29.86 "HgN/A
8:00 PM91 °FScattered clouds.3 mph36%29.83 "HgN/A
7:00 PM93 °FScattered clouds.12 mph34%29.83 "HgN/A
6:00 PM95 °FScattered clouds.7 mph28%29.83 "HgN/A
5:00 PM95 °FPassing clouds.8 mph30%29.86 "HgN/A
4:00 PM95 °FPassing clouds.9 mph30%29.86 "HgN/A
3:30 PM93 °FPassing clouds.12 mph36%29.86 "HgN/A
2:00 PM86 °FPassing clouds.5 mph46%29.89 "HgN/A
1:00 PM79 °FScattered clouds.2 mph65%29.92 "HgN/A
12:30 PM77 °FScattered clouds.5 mph74%29.95 "HgN/A
11:30 AM73 °FThundershowers. Scattered clouds.3 mph78%29.95 "HgN/A
11:00 AM72 °FThunderstorms. Scattered clouds.8 mph88%29.98 "HgN/A
10:30 AM73 °FBroken clouds.6 mph83%29.95 "HgN/A
10:00 AM72 °FBroken clouds.6 mph83%29.95 "HgN/A
9:30 AM70 °FLight rain. Broken clouds.6 mph88%29.95 "HgN/A
9:00 AM70 °FThunderstorms. Broken clouds.6 mph88%29.98 "Hg4 mi
8:30 AM70 °FThundershowers. Broken clouds.3 mph88%29.95 "HgN/A
7:49 AM70 °FThunderstorms. Scattered clouds.5 mph88%29.95 "HgN/A
7:30 AM70 °FThunderstorms. Passing clouds.6 mph88%29.95 "Hg6 mi
7:00 AM72 °FThundershowers. Passing clouds.8 mph83%29.95 "HgN/A
6:30 AM73 °FPassing clouds.5 mph69%29.95 "HgN/A
6:00 AM72 °FThundershowers. Passing clouds.6 mph83%29.95 "HgN/A
5:30 AM73 °FSprinkles. Passing clouds.12 mph74%29.98 "HgN/A
5:19 AM75 °FThundershowers. Passing clouds.13 mph65%29.95 "HgN/A
5:00 AM73 °FThundershowers. Passing clouds.9 mph78%29.98 "HgN/A
Weather by CustomWeather, © 2015

See weather overviewHow to use our weather pages